• In Hungary
  • List of Countries
  • For 7 days
  • Water Temperature
  • Satellite Maps
  • Weather Map
  • News
  • Weather Widgets
  • user-avatar
    Login

    Hourly Weather Chumaky

    Today, 25 February, Sunday

    Time Temperature Precipitation Wind Pressure Humidity
    00:00 -11°C° 0 mm 5 mps 750 mmHg 73%
    01:00 -11°C° 0 mm 5 mps 750 mmHg 73%
    02:00 -12°C° 0 mm 5 mps 749 mmHg 73%
    03:00 -12°C° 0 mm 5 mps 750 mmHg 73%
    04:00 -13°C° 0 mm 5 mps 750 mmHg 74%
    05:00 -13°C° 0 mm 5 mps 750 mmHg 74%
    06:00 -13°C° 0 mm 5 mps 750 mmHg 73%
    07:00 -14°C° 0 mm 5 mps 750 mmHg 72%
    08:00 -15°C° 0 mm 6 mps 750 mmHg 71%
    09:00 -14°C° 0 mm 6 mps 750 mmHg 67%
    10:00 -12°C° 0 mm 6 mps 750 mmHg 62%
    11:00 -12°C° 0 mm 6 mps 750 mmHg 58%
    12:00 -11°C° 0 mm 6 mps 750 mmHg 56%
    13:00 -10°C° 0 mm 6 mps 750 mmHg 54%
    14:00 -10°C° 0 mm 6 mps 750 mmHg 52%
    15:00 -10°C° 0 mm 6 mps 750 mmHg 54%
    16:00 -10°C° 0 mm 6 mps 750 mmHg 56%
    17:00 -11°C° 0 mm 6 mps 751 mmHg 58%
    18:00 -11°C° 0 mm 6 mps 751 mmHg 61%
    19:00 -12°C° 0 mm 6 mps 751 mmHg 64%
    20:00 -14°C° 0 mm 6 mps 752 mmHg 67%
    21:00 -13°C° 0 mm 5 mps 752 mmHg 68%
    22:00 -13°C° 0 mm 5 mps 752 mmHg 69%
    23:00 -14°C° 0 mm 5 mps 752 mmHg 70%

    Tomorrow, 26 February, Monday

    Time Temperature Precipitation Wind Pressure Humidity
    00:00 -14°C° 0 mm 5 mps 752 mmHg 70%
    01:00 -14°C° 0 mm 5 mps 752 mmHg 70%
    02:00 -15°C° 0 mm 5 mps 753 mmHg 71%
    03:00 -15°C° 0 mm 5 mps 753 mmHg 71%
    04:00 -15°C° 0 mm 5 mps 753 mmHg 71%
    05:00 -15°C° 0 mm 5 mps 753 mmHg 72%
    06:00 -15°C° 0 mm 5 mps 753 mmHg 71%
    07:00 -15°C° 0 mm 5 mps 753 mmHg 70%
    08:00 -15°C° 0 mm 5 mps 753 mmHg 69%
    09:00 -14°C° 0 mm 5 mps 754 mmHg 64%
    10:00 -13°C° 0 mm 5 mps 754 mmHg 59%
    11:00 -12°C° 0 mm 5 mps 754 mmHg 54%
    12:00 -12°C° 0 mm 5 mps 753 mmHg 51%
    13:00 -11°C° 0 mm 5 mps 753 mmHg 49%
    14:00 -10°C° 0 mm 5 mps 753 mmHg 46%
    15:00 -10°C° 0 mm 5 mps 753 mmHg 48%
    16:00 -11°C° 0 mm 5 mps 753 mmHg 49%
    17:00 -11°C° 0 mm 5 mps 753 mmHg 51%
    18:00 -11°C° 0 mm 6 mps 753 mmHg 55%
    19:00 -12°C° 0 mm 6 mps 753 mmHg 59%
    20:00 -12°C° 0 mm 6 mps 753 mmHg 64%
    21:00 -14°C° 0 mm 6 mps 753 mmHg 65%
    22:00 -14°C° 0 mm 6 mps 753 mmHg 67%
    23:00 -14°C° 0 mm 7 mps 753 mmHg 69%

    Day after tomorrow, 27 February, Tuesday

    Time Temperature Precipitation Wind Pressure Humidity
    00:00 -14°C° 0 mm 7 mps 752 mmHg 69%
    01:00 -15°C° 0 mm 7 mps 752 mmHg 69%
    02:00 -15°C° 0 mm 7 mps 752 mmHg 70%
    03:00 -16°C° 0 mm 8 mps 751 mmHg 69%
    04:00 -16°C° 0 mm 8 mps 751 mmHg 68%
    05:00 -16°C° 0 mm 9 mps 750 mmHg 67%
    06:00 -16°C° 0 mm 9 mps 750 mmHg 65%
    07:00 -16°C° 0 mm 9 mps 750 mmHg 64%
    08:00 -15°C° 0 mm 10 mps 750 mmHg 62%
    09:00 -14°C° 0 mm 10 mps 750 mmHg 58%
    10:00 -13°C° 0 mm 10 mps 749 mmHg 55%
    11:00 -11°C° 0 mm 9 mps 749 mmHg 51%
    12:00 -11°C° 0.2 mm 9 mps 749 mmHg 55%
    13:00 -11°C° 0.2 mm 9 mps 748 mmHg 59%
    14:00 -11°C° 0.2 mm 9 mps 747 mmHg 63%
    15:00 -11°C° 0.8 mm 9 mps 747 mmHg 72%
    16:00 -11°C° 0.8 mm 9 mps 747 mmHg 80%
    17:00 -11°C° 0.8 mm 9 mps 746 mmHg 89%
    18:00 -11°C° 0.8 mm 9 mps 746 mmHg 89%
    19:00 -11°C° 0.8 mm 9 mps 745 mmHg 90%
    20:00 -11°C° 0.8 mm 9 mps 745 mmHg 91%
    21:00 -11°C° 0.8 mm 9 mps 744 mmHg 91%
    22:00 -11°C° 0.8 mm 9 mps 744 mmHg 91%
    23:00 -10°C° 0.8 mm 9 mps 743 mmHg 92%

    28 February, Wednesday

    Time Temperature Precipitation Wind Pressure Humidity
    00:00 -10°C° 1.2 mm 9 mps 743 mmHg 92%
    01:00 -10°C° 1.2 mm 8 mps 743 mmHg 93%
    02:00 -8°C° 1.2 mm 7 mps 743 mmHg 93%
    03:00 -8°C° 0.6 mm 7 mps 743 mmHg 93%
    04:00 -9°C° 0.6 mm 7 mps 743 mmHg 93%
    05:00 -9°C° 0.6 mm 7 mps 744 mmHg 93%
    06:00 -11°C° 0.1 mm 7 mps 745 mmHg 92%
    07:00 -11°C° 0.1 mm 7 mps 746 mmHg 92%
    08:00 -12°C° 0.1 mm 8 mps 746 mmHg 91%
    09:00 -12°C° 0 mm 7 mps 747 mmHg 89%
    10:00 -11°C° 0 mm 7 mps 748 mmHg 87%
    11:00 -11°C° 0 mm 7 mps 749 mmHg 86%
    12:00 -11°C° 0 mm 7 mps 750 mmHg 85%
    13:00 -9°C° 0 mm 6 mps 750 mmHg 84%
    14:00 -9°C° 0 mm 6 mps 750 mmHg 83%
    15:00 -9°C° 0 mm 4 mps 751 mmHg 84%
    16:00 -8°C° 0 mm 3 mps 751 mmHg 85%
    17:00 -7°C° 0 mm 2 mps 751 mmHg 86%
    18:00 -8°C° 0 mm 2 mps 751 mmHg 87%
    19:00 -8°C° 0 mm 1 mps 751 mmHg 87%
    20:00 -9°C° 0 mm 1 mps 752 mmHg 88%
    21:00 -9°C° 0 mm 1 mps 751 mmHg 89%
    22:00 -10°C° 0 mm 2 mps 751 mmHg 89%
    23:00 -10°C° 0 mm 3 mps 751 mmHg 90%

    1 March, Thursday

    Time Temperature Precipitation Wind Pressure Humidity
    00:00 -11°C° 0.1 mm 4 mps 750 mmHg 90%
    01:00 -12°C° 0.1 mm 5 mps 750 mmHg 91%
    02:00 -12°C° 0.1 mm 6 mps 749 mmHg 91%
    03:00 -12°C° 1.2 mm 6 mps 749 mmHg 92%
    04:00 -13°C° 1.2 mm 7 mps 748 mmHg 94%
    05:00 -12°C° 1.2 mm 8 mps 747 mmHg 95%
    06:00 -12°C° 1.7 mm 9 mps 746 mmHg 95%
    07:00 -11°C° 1.7 mm 9 mps 745 mmHg 95%
    08:00 -10°C° 1.7 mm 9 mps 744 mmHg 95%
    09:00 -9°C° 2 mm 9 mps 743 mmHg 95%
    10:00 -9°C° 2 mm 9 mps 742 mmHg 95%
    11:00 -8°C° 2 mm 9 mps 741 mmHg 96%
    12:00 -8°C° 1.7 mm 9 mps 741 mmHg 96%
    13:00 -6°C° 1.7 mm 9 mps 740 mmHg 96%
    14:00 -6°C° 1.7 mm 9 mps 740 mmHg 96%
    15:00 -7°C° 1.3 mm 10 mps 740 mmHg 95%
    16:00 -8°C° 1.3 mm 10 mps 740 mmHg 93%
    17:00 -8°C° 1.3 mm 11 mps 740 mmHg 92%
    18:00 -9°C° 0.4 mm 11 mps 741 mmHg 92%
    19:00 -10°C° 0.4 mm 10 mps 742 mmHg 91%
    20:00 -12°C° 0.4 mm 10 mps 742 mmHg 91%
    21:00 -13°C° 0.2 mm 10 mps 743 mmHg 91%
    22:00 -14°C° 0.2 mm 10 mps 744 mmHg 91%
    23:00 -15°C° 0.2 mm 10 mps 745 mmHg 90%

    2 March, Friday

    Time Temperature Precipitation Wind Pressure Humidity
    00:00 -15°C° 0.1 mm 9 mps 745 mmHg 91%
    01:00 -16°C° 0.1 mm 9 mps 746 mmHg 91%
    02:00 -17°C° 0.1 mm 8 mps 747 mmHg 91%
    03:00 -18°C° 0 mm 7 mps 747 mmHg 92%
    04:00 -18°C° 0 mm 7 mps 748 mmHg 92%
    05:00 -18°C° 0 mm 6 mps 748 mmHg 93%
    06:00 -20°C° 0 mm 6 mps 748 mmHg 93%
    07:00 -20°C° 0 mm 6 mps 749 mmHg 93%
    08:00 -20°C° 0 mm 6 mps 749 mmHg 94%
    09:00 -18°C° 0 mm 6 mps 750 mmHg 93%
    10:00 -17°C° 0 mm 6 mps 750 mmHg 92%
    11:00 -16°C° 0 mm 6 mps 750 mmHg 92%
    12:00 -15°C° 0 mm 6 mps 750 mmHg 90%
    13:00 -14°C° 0 mm 6 mps 750 mmHg 89%
    14:00 -12°C° 0 mm 6 mps 750 mmHg 88%
    15:00 -12°C° 0 mm 5 mps 750 mmHg 88%
    16:00 -12°C° 0 mm 4 mps 750 mmHg 88%
    17:00 -12°C° 0 mm 4 mps 750 mmHg 89%
    18:00 -14°C° 0 mm 4 mps 750 mmHg 90%
    19:00 -14°C° 0 mm 3 mps 750 mmHg 91%
    20:00 -14°C° 0 mm 3 mps 750 mmHg 92%
    21:00 -15°C° 0 mm 3 mps 750 mmHg 92%
    22:00 -15°C° 0 mm 2 mps 750 mmHg 93%
    23:00 -15°C° 0 mm 2 mps 750 mmHg 93%
    Show more